Waarnemingen

Advertentie
Mijn weer
St-Sauveur, Frankrijk (7300): temperatuur & dauwpunt: 14.07.2018 04:00:00 - 20.07.2018 04:00:00 (CEST)St-Sauveur, Frankrijk (7300): windsnelheid & windstoten: 14.07.2018 04:00:00 - 20.07.2018 04:00:00 (CEST)St-Sauveur, Frankrijk (7300): windrichting: 14.07.2018 04:00:00 - 20.07.2018 04:00:00 (CEST)St-Sauveur, Frankrijk (7300): luchtdruk: 14.07.2018 04:00:00 - 20.07.2018 04:00:00 (CEST)St-Sauveur, Frankrijk (7300): zicht: 14.07.2018 04:00:00 - 20.07.2018 04:00:00 (CEST)St-Sauveur, Frankrijk (7300): neerslag: 14.07.2018 04:00:00 - 20.07.2018 04:00:00 (CEST)
Datum & Tijd tt [°C] td [°C] ff [km/u] ff [kn] fx [km/u] fx [kn] dd ppp [hPa] vv [km] rr [mm]
20.07.2018 04:00:00 16,7 13,4 20 11 31 17 N 1016,9 - 0,0
20.07.2018 03:00:00 16,8 14,3 19 10 29 16 N 1017,2 - 0,0
20.07.2018 02:00:00 15,7 15,2 17 9 24 13 N 1017,2 20 0,0
20.07.2018 01:00:00 14,5 13,5 6 3 9 5 N 1017,4 - 0,0
20.07.2018 00:00:00 15,6 14,5 7 4 12 6 NNO 1017,3 - 0,0
19.07.2018 23:00:00 16,8 15,3 10 5 17 9 N 1016,9 25 0,0
19.07.2018 22:00:00 17,5 16,0 12 6 18 10 NNW 1016,3 - 0,0
19.07.2018 21:00:00 19,1 16,9 9 5 16 9 NW 1016,6 - 0,0
19.07.2018 20:00:00 18,6 17,1 7 4 10 6 NW 1016,7 25 0,0
19.07.2018 19:00:00 18,4 17,2 6 3 16 8 ZO 1017,2 - 0,0
19.07.2018 18:00:00 18,1 17,5 7 4 18 10 N 1017,0 - 2,4
19.07.2018 17:00:00 18,1 16,6 3 1 12 6 Z 1017,7 20 0,6
19.07.2018 16:00:00 18,3 17,0 9 5 24 13 ZW 1018,0 - 0,0
19.07.2018 15:00:00 18,3 16,5 3 2 19 10 NNW 1017,6 - 1,0
19.07.2018 14:00:00 18,1 16,4 7 4 14 8 WNW 1018,1 12 0,6
19.07.2018 13:00:00 18,1 16,3 6 3 31 17 WNW 1017,9 - 0,4
19.07.2018 12:00:00 20,0 15,4 9 5 19 11 NNW 1017,2 - 0,0
19.07.2018 11:00:00 19,8 15,2 12 7 19 10 N 1017,2 - 0,0
19.07.2018 10:00:00 21,2 15,9 7 4 15 8 N 1016,9 - 0,0
19.07.2018 09:00:00 19,9 15,7 4 2 9 5 N 1016,8 - 0,0
19.07.2018 08:00:00 18,4 16,4 2 1 16 9 WNW 1016,7 25 0,0
19.07.2018 07:00:00 16,9 14,7 11 6 16 9 O 1016,2 - 0,0
19.07.2018 06:00:00 17,2 15,4 11 6 16 8 ONO 1016,2 - 0,0
19.07.2018 05:00:00 17,4 15,7 11 6 16 8 NNO 1016,5 25 0,0
19.07.2018 04:00:00 16,5 14,1 8 5 15 8 N 1016,7 - 0,0
19.07.2018 03:00:00 17,1 14,9 9 5 15 8 NNW 1017,1 - 0,0
19.07.2018 02:00:00 17,2 14,7 9 5 16 9 NNW 1017,3 - 0,0
19.07.2018 01:00:00 17,7 14,6 13 7 17 9 NW 1017,5 - 0,0
19.07.2018 00:00:00 17,2 14,5 12 6 17 9 NW 1017,9 - 0,0
18.07.2018 23:00:00 17,7 14,0 13 7 20 11 NW 1017,8 30 0,0
18.07.2018 22:00:00 18,5 13,6 13 7 24 13 NW 1017,3 - 0,0
18.07.2018 21:00:00 20,5 13,9 16 9 29 16 NW 1017,1 - 0,0
18.07.2018 20:00:00 21,6 14,0 16 8 29 15 NW 1016,8 30 0,0
18.07.2018 19:00:00 22,5 13,0 16 9 28 15 NW 1016,8 - 0,0
18.07.2018 18:00:00 23,0 13,5 17 9 27 14 NW 1017,0 - 0,0
18.07.2018 17:00:00 23,1 13,0 14 8 26 14 NW 1017,3 25 0,0
18.07.2018 16:00:00 22,5 14,1 13 7 26 14 NW 1017,6 - 0,0
18.07.2018 15:00:00 22,1 13,7 13 7 24 13 NNW 1017,2 - 0,0
18.07.2018 14:00:00 21,8 13,2 12 7 27 15 N 1017,4 20 0,0
18.07.2018 13:00:00 22,1 12,9 11 6 22 12 N 1017,5 - 0,0
18.07.2018 12:00:00 21,6 13,0 11 6 21 11 N 1017,8 - 0,0
18.07.2018 11:00:00 20,6 14,3 10 6 19 10 N 1017,9 - 0,0
18.07.2018 10:00:00 19,5 14,5 11 6 23 12 N 1018,0 - 0,0
18.07.2018 09:00:00 18,4 14,1 13 7 21 11 N 1017,8 - 0,0
18.07.2018 08:00:00 16,6 14,4 9 5 16 9 NNW 1017,9 25 0,0
18.07.2018 07:00:00 14,8 12,5 14 7 17 9 NNW 1017,9 - 0,0
18.07.2018 06:00:00 15,5 13,7 13 7 19 11 N 1017,8 - 0,0
18.07.2018 05:00:00 15,7 14,4 13 7 20 11 N 1018,1 25 0,0
18.07.2018 04:00:00 14,8 14,0 12 7 17 9 N 1018,5 - 0,0
18.07.2018 03:00:00 13,9 12,6 10 6 14 7 NNW 1018,8 - 0,0
18.07.2018 02:00:00 14,6 12,8 10 5 14 7 NNW 1019,0 - 0,0
18.07.2018 01:00:00 14,9 12,9 9 5 14 8 N 1019,3 - 0,0
18.07.2018 00:00:00 15,1 11,9 9 5 16 8 N 1019,3 - 0,0
17.07.2018 23:00:00 16,3 12,3 12 6 16 9 NW 1019,5 - 0,0
17.07.2018 22:00:00 18,0 12,2 11 6 22 12 NW 1019,2 - 0,0
17.07.2018 21:00:00 20,3 11,5 16 9 24 13 NW 1019,0 - 0,0
17.07.2018 20:00:00 21,4 13,3 15 8 25 14 NW 1018,9 30 0,0
17.07.2018 19:00:00 22,3 13,9 11 6 25 13 NNW 1018,9 - 0,0
17.07.2018 18:00:00 22,3 13,4 17 9 30 16 NW 1019,2 - 0,0
17.07.2018 17:00:00 23,2 13,7 11 6 24 13 N 1019,3 30 0,0
17.07.2018 16:00:00 24,0 14,7 12 7 24 13 ZW 1019,5 - 0,0
17.07.2018 15:00:00 23,2 14,7 8 4 19 10 Z 1019,7 - 0,0
17.07.2018 14:00:00 23,3 12,9 5 3 21 11 WZW 1020,0 22 0,0
17.07.2018 13:00:00 23,0 12,6 9 5 20 11 WZW 1020,1 - 0,0
17.07.2018 12:00:00 21,4 13,1 6 4 18 10 N 1020,2 - 0,0
17.07.2018 11:00:00 21,0 14,4 9 5 19 10 N 1020,2 20 0,0
17.07.2018 10:00:00 19,8 14,6 13 7 21 12 NNW 1019,8 - 0,0
17.07.2018 09:00:00 19,5 14,9 11 6 19 10 N 1019,7 - 0,0
17.07.2018 08:00:00 17,7 14,8 8 5 16 8 N 1019,4 20 0,0
17.07.2018 07:00:00 17,0 14,8 10 5 16 8 NNW 1019,2 - 0,0
17.07.2018 06:00:00 16,7 15,2 9 5 16 9 NW 1018,9 - 0,0
17.07.2018 05:00:00 16,7 14,9 12 6 20 11 NW 1018,8 25 0,0
17.07.2018 04:00:00 17,3 15,6 13 7 21 11 NW 1018,9 - 0,0
17.07.2018 03:00:00 17,4 15,0 14 8 27 15 NW 1018,9 - 0,0
17.07.2018 02:00:00 18,1 15,9 14 8 34 18 WNW 1019,2 25 0,0
17.07.2018 01:00:00 19,0 16,0 18 10 36 20 WNW 1019,0 - 0,0
17.07.2018 00:00:00 19,5 16,9 14 8 34 18 WNW 1018,6 - 0,0
16.07.2018 23:00:00 19,7 16,9 10 5 27 15 W 1018,5 25 0,0
16.07.2018 22:00:00 20,2 16,6 14 8 32 18 W 1018,1 - 0,0
16.07.2018 21:00:00 21,6 17,0 16 9 40 22 WNW 1017,8 - 0,0
16.07.2018 20:00:00 22,5 16,5 23 12 41 22 WNW 1017,5 - 0,0
16.07.2018 19:00:00 23,0 17,7 21 11 45 24 WNW 1016,9 - 0,0
16.07.2018 18:00:00 23,4 17,2 25 14 48 26 WNW 1017,0 - 0,0
16.07.2018 17:00:00 23,2 16,0 22 12 48 26 WNW 1016,8 20 0,0
16.07.2018 16:00:00 23,4 17,2 29 16 49 26 NW 1016,6 - 0,0
16.07.2018 15:00:00 23,7 17,2 23 12 46 25 WNW 1016,5 - 0,0
16.07.2018 14:00:00 23,7 15,7 26 14 46 25 NW 1016,5 20 0,0
16.07.2018 13:00:00 24,4 14,5 22 12 42 23 NW 1016,2 - 0,0
16.07.2018 12:00:00 24,0 14,7 19 11 39 21 NW 1015,9 - 0,0
16.07.2018 11:00:00 23,8 13,3 20 11 31 17 NW 1015,4 18 0,0
16.07.2018 10:00:00 21,7 15,5 13 7 25 14 NNW 1015,1 - 0,0
16.07.2018 09:00:00 20,7 16,3 13 7 29 15 N 1015,1 - 0,0
16.07.2018 08:00:00 19,0 16,0 16 9 29 15 NNW 1014,7 20 0,0
16.07.2018 07:00:00 16,7 15,1 14 8 19 10 NNW 1014,6 - 0,0
16.07.2018 06:00:00 16,7 14,9 13 7 16 9 NNW 1014,4 - 0,0
16.07.2018 05:00:00 17,6 15,0 9 5 18 10 NW 1014,4 - 0,0
16.07.2018 04:00:00 18,6 16,2 14 7 22 12 NNW 1014,7 - 0,0
16.07.2018 03:00:00 19,2 16,4 16 9 29 16 NW 1014,9 - 0,0
16.07.2018 02:00:00 19,6 17,0 20 11 32 18 NW 1015,2 25 0,0
16.07.2018 01:00:00 19,6 17,0 18 10 28 15 NNW 1015,4 - 0,0
16.07.2018 00:00:00 20,1 18,4 16 8 31 17 NNW 1015,3 - 0,0
15.07.2018 23:00:00 20,6 18,4 14 8 26 14 NNW 1015,1 25 0,0
15.07.2018 22:00:00 21,7 17,9 15 8 27 14 NNW 1014,7 - 0,0
15.07.2018 21:00:00 24,2 16,2 13 7 29 16 NNW 1014,3 - 0,0
15.07.2018 20:00:00 25,4 16,0 16 8 32 18 NNW 1014,3 25 0,0
15.07.2018 19:00:00 26,9 15,3 16 9 31 17 NNW 1014,3 - 0,0
15.07.2018 18:00:00 27,5 15,2 19 10 29 16 NNW 1014,5 - 0,0
15.07.2018 17:00:00 28,3 14,5 15 8 23 12 N 1014,7 20 0,0
15.07.2018 16:00:00 28,3 15,9 14 8 23 12 NNW 1014,8 - 0,0
15.07.2018 15:00:00 28,4 16,3 12 7 22 12 N 1015,0 - 0,0
15.07.2018 14:00:00 27,0 16,3 13 7 21 12 N 1015,3 20 0,0
15.07.2018 13:00:00 26,4 16,3 11 6 22 12 N 1015,5 - 0,0
15.07.2018 12:00:00 25,9 15,9 11 6 21 11 NO 1015,7 - 0,0
15.07.2018 11:00:00 24,1 15,6 12 6 27 14 NNO 1015,8 - 0,0
15.07.2018 10:00:00 21,8 15,2 16 9 29 16 NO 1015,9 - 0,0
15.07.2018 09:00:00 20,4 15,0 14 8 27 15 NO 1015,8 - 0,0
15.07.2018 08:00:00 18,6 15,1 15 8 22 12 NNO 1015,8 20 0,0
15.07.2018 07:00:00 17,7 14,8 15 8 22 12 NNO 1015,6 - 0,0
15.07.2018 06:00:00 17,8 14,9 17 9 23 12 NNO 1015,7 - 0,0
15.07.2018 05:00:00 18,3 15,2 16 9 26 14 NNO 1015,8 - 0,0
15.07.2018 04:00:00 18,9 15,2 18 10 28 15 NNO 1016,0 - 0,0
15.07.2018 03:00:00 19,6 15,5 18 10 29 16 NNO 1016,3 - 0,0
15.07.2018 02:00:00 20,4 15,4 18 10 30 16 NNO 1016,6 20 0,0
15.07.2018 01:00:00 21,3 15,4 19 10 31 17 NNO 1016,8 - 0,0
15.07.2018 00:00:00 21,1 16,1 19 10 33 18 N 1016,7 - 0,0
14.07.2018 23:00:00 21,3 16,7 16 9 30 16 N 1016,8 - 0,0
14.07.2018 22:00:00 22,2 16,0 16 9 28 15 NNW 1016,5 - 0,0
14.07.2018 21:00:00 24,3 15,8 13 7 25 13 NNW 1016,5 - 0,0
14.07.2018 20:00:00 25,4 15,4 13 7 27 15 NNW 1016,6 25 0,0
14.07.2018 19:00:00 26,4 16,6 14 8 32 17 NNW 1016,8 - 0,0
14.07.2018 18:00:00 26,4 16,6 17 9 32 18 NNW 1017,1 - 0,0
14.07.2018 17:00:00 27,4 16,7 16 8 32 17 N 1017,3 20 0,0
14.07.2018 16:00:00 27,0 16,6 19 10 32 17 N 1017,7 - 0,0
14.07.2018 15:00:00 26,3 17,1 16 9 31 17 N 1018,1 - 0,0
14.07.2018 14:00:00 26,1 17,5 17 9 28 15 N 1018,3 20 0,0
14.07.2018 13:00:00 25,4 17,3 16 9 24 13 N 1018,3 - 0,0
14.07.2018 12:00:00 24,6 17,8 14 7 23 12 N 1018,7 - 0,0
14.07.2018 11:00:00 23,4 16,4 13 7 21 11 NNO 1018,8 - 0,0
14.07.2018 10:00:00 21,1 16,1 15 8 23 12 NNO 1018,9 - 0,0
14.07.2018 09:00:00 19,6 15,5 16 9 27 15 NNO 1019,0 - 0,0
14.07.2018 08:00:00 18,3 15,5 16 9 29 15 NNO 1018,8 15 0,0
14.07.2018 07:00:00 17,4 15,6 17 9 25 14 NNO 1018,6 - 0,0
14.07.2018 06:00:00 17,8 15,4 17 9 27 15 NNO 1018,6 - 0,0
14.07.2018 05:00:00 18,5 15,6 17 9 32 17 NO 1018,8 - 0,0
14.07.2018 04:00:00 19,0 15,5 18 10 30 16 NNO 1019,1 - 0,0

tt = temperatuur
td = dauwpunt
ff = windsnelheid
fx = windstoten
dd = windrichting
ppp = luchtdruk
vv = zicht
rr = neerslag

Weerstations in de omgeving